#timestamp,LO_Frequency,Hit,StdDev 
1583821375.9,286047010.9,P
1583821395.7,286047013.8,P
1583821415.5,286047012.4,P
1583821435.4,286047010.7,Y
1583821455.2,286046997.4,P
1583821475.1,286046999.6,N
1583821476.0,286046999.6,N
1583821495.8,286046997.6,N
1583821515.6,286046996.9,N
1583821535.5,286047000.6,N
1583821555.3,286047000.7,N
1583821575.2,286046999.4,N
1583821595.9,286046996.9,N
1583821615.7,286046997.9,N
1583821635.6,286046997.5,N
1583821655.4,286046993.7,N
1583821675.2,286046993.9,N
1583821695.1,286046993.9,N
1583821696.0,286046993.9,N
1583821715.8,286046993.5,N
1583821735.7,286046993.7,N
1583821755.5,286046996.4,N
1583821775.3,286046994.3,N
1583821795.2,286046992.8,N
1583821815.0,286046992.3,N
1583821815.9,286046992.3,N
1583821835.7,286046990.4,N
1583821855.6,286046990.4,N
1583821875.4,286046993.2,N
1583821895.3,286046994.8,N
1583821915.1,286046995.0,N
1583821935.8,286046997.5,N
1583821955.7,286046996.5,N
1583821975.5,286046998.7,N
1583821995.4,286047000.3,N
1583822015.2,286047000.7,N
1583822035.0,286046999.0,N
1583822035.9,286046999.0,N
1583822055.8,286046997.0,N
1583822075.6,286046996.5,N
1583822095.5,286046998.3,N
1583822115.3,286047000.9,N
1583822135.1,286046997.3,N
1583822155.9,286046999.6,N
1583822175.7,286046996.8,N
1583822195.5,286046997.5,N
1583822215.4,286046997.8,N
1583822235.2,286046997.8,N
1583822255.1,286046997.2,N
1583822256.0,286046997.2,N
1583822275.8,286046996.7,N
1583822295.6,286046996.6,N
1583822315.5,286046998.3,N
1583822335.3,286047000.3,N
1583822355.2,286046998.6,N
1583822375.9,286046998.2,N
1583822395.7,286046997.4,N
1583822415.6,286046999.3,N
1583822435.4,286046999.6,N
1583822455.2,286046997.1,N
1583822475.1,286046998.9,N
1583822476.0,286046998.9,N
1583822495.8,286046999.3,N
1583822515.7,286047000.8,N
1583822535.5,286047000.8,N
1583822555.3,286046997.8,N
1583822575.2,286046995.7,Y
1583822595.0,286046996.8,P
1583822595.9,286046996.8,P
1583822615.8,286047000.8,N
1583822635.6,286046999.7,N
1583822655.4,286047000.2,N
1583822675.3,286047002.8,N
1583822695.1,286047002.7,N
1583822715.9,286047001.3,N
1583822735.7,286047002.9,N
1583822755.5,286047007.1,Y
1583822775.4,286047005.2,P
1583822795.2,286047003.7,N
1583822815.1,286047003.1,N
1583822816.0,286047003.1,N
1583822835.8,286047003.9,N
1583822855.6,286047002.0,N
1583822875.5,286047000.5,N
1583822895.3,286046998.6,N
1583822915.1,286046999.3,N
1583822935.9,286046999.4,N
1583822955.7,286046998.7,N
1583822975.6,286047001.2,N
1583822995.4,286046999.8,N
1583823015.2,286047000.5,N
1583823035.1,286046999.2,N
1583823036.0,286046999.2,N
1583823055.8,286046998.4,N
1583823075.7,286047001.6,N
1583823095.5,286047003.9,N
1583823115.3,286047002.5,N
1583823135.2,286046996.6,N
1583823155.9,286046995.0,N
1583823175.7,286046995.2,N
1583823195.6,286046998.8,N
1583823215.4,286046998.6,N
1583823235.2,286046996.7,N
1583823255.1,286046997.8,N
1583823256.0,286046997.8,N
1583823275.8,286046996.8,N
1583823295.7,286046994.9,N
1583823315.5,286046994.1,N
1583823335.3,286046990.1,Y
1583823355.2,286046992.0,P
1583823375.0,286046992.2,N
1583823375.9,286046992.2,N
1583823395.8,286046993.4,N
1583823415.6,286046993.7,N
1583823435.4,286046993.3,N
1583823455.3,286046991.8,Y
1583823475.1,286046999.5,P
1583823495.8,286046999.5,N
1583823515.7,286046999.6,N
1583823535.5,286046998.8,N
1583823555.4,286046997.5,N
1583823575.2,286046996.9,N
1583823595.0,286046999.2,N
1583823595.9,286046999.2,N
